Cloud_Cover
0 21 73 0 0 0 0 2 2 0 0 4 0 0 0 0 0 0 0 0 0 91 100 100 100 100 100 100 100 100 100 96 100 100 100 99 100 100 100 91 99 54 33 21
0 54 0 0 0 0 2 6 11 1 0 4 2 1 0 0 0 0 0 0 0 21 65 95 100 100 100 100 100 100 100 100 100 100 100 91 85 55 13 63 40 75 98 14
0 0 0 0 0 0 2 5 5 5 5 0 4 0 0 0 0 0 0 0 0 0 0 97 100 100 100 100 100 100 100 100 100 100 98 93 71 91 90 98 99 100 100 73
0 2 0 0 0 0 0 4 5 5 5 5 5 46 0 0 0 0 0 0 0 0 0 73 100 100 100 100 100 100 100 100 100 100 92 100 100 97 100 100 76 7 5 74
5 5 5 3 4 1 0 0 1 5 5 74 5 70 0 0 0 0 0 0 0 0 0 8 99 100 100 100 100 100 100 100 100 88 79 100 100 100 100 100 36 100 100 85
77 5 0 5 5 5 2 0 0 5 23 56 5 8 4 0 0 3 0 0 0 0 0 56 100 100 100 100 100 52 81 96 69 70 100 100 100 100 100 100 100 100 100 99
27 20 5 0 0 0 5 5 16 14 85 10 17 42 0 1 2 0 4 0 0 0 0 2 52 100 100 100 100 87 100 100 100 100 100 100 100 100 100 100 99 100 100 92
63 52 18 5 4 12 63 4 5 0 11 4 5 6 0 2 7 0 5 3 0 0 0 0 0 61 100 100 100 100 100 100 93 100 100 100 100 100 100 100 56 100 100 100
0 2 3 28 0 4 46 92 3 5 41 90 3 5 0 0 5 18 5 5 1 0 0 0 0 39 100 100 98 99 100 100 100 100 100 100 100 100 100 100 99 93 100 99
0 0 0 0 0 2 3 3 31 45 38 83 4 4 0 0 0 91 53 5 5 0 0 0 0 1 4 73 22 27 96 100 100 100 100 100 100 100 100 100 100 61 100 98
0 0 0 49 87 23 40 72 5 5 4 5 3 1 0 0 0 10 96 71 36 6 0 0 0 0 18 12 78 100 100 100 98 100 100 100 100 100 100 100 100 100 100 100
70 98 4 6 0 0 0 1 4 3 3 58 17 14 5 0 0 3 72 99 100 99 4 0 0 0 0 61 94 100 100 100 100 100 100 100 100 100 100 100 100 100 100 100
100 97 51 1 2 1 97 48 5 3 5 5 26 8 97 10 0 0 80 11 88 100 99 5 0 0 0 0 68 100 100 100 100 100 100 100 100 100 100 100 100 100 100 100
100 84 67 29 4 2 14 12 5 3 29 2 3 0 0 1 0 0 0 4 35 100 93 96 4 0 0 0 19 100 100 100 100 100 100 100 100 100 100 100 100 100 100 100
100 100 100 72 5 52 10 4 10 86 5 9 0 0 0 0 0 0 0 5 5 100 100 62 25 3 0 0 1 100 100 100 100 100 100 100 100 100 100 100 100 100 100 100
100 100 100 73 30 100 99 91 14 3 5 5 4 2 0 0 0 0 0 5 5 5 100 100 62 27 4 0 0 77 100 100 100 100 100 100 100 100 100 100 100 100 100 100
100 100 100 82 3 100 100 32 5 34 5 2 51 3 0 0 0 0 0 0 0 0 69 100 100 79 24 74 0 48 98 100 100 100 100 100 100 100 100 100 100 100 100 100
95 100 100 82 87 100 2 0 3 3 0 0 3 0 0 0 0 0 0 0 0 0 2 96 100 100 83 96 89 1 10 100 100 100 100 100 100 100 100 100 100 100 100 100
81 99 100 100 50 92 0 0 5 17 0 2 0 0 0 0 0 0 0 0 0 0 0 7 79 100 100 92 98 98 95 100 100 100 100 100 100 100 100 100 100 100 100 100
100 100 100 67 100 75 0 0 6 12 18 0 0 0 0 0 0 0 0 0 0 0 0 0 5 94 100 100 100 100 100 100 100 100 100 100 100 100 100 100 100 100 100 100
100 100 100 99 100 40 0 58 18 100 4 0 0 0 0 0 10 0 0 0 0 0 0 0 0 6 100 100 100 100 100 100 41 99 100 100 92 99 100 100 100 100 100 100
100 100 97 100 100 85 0 99 100 99 19 83 51 100 100 94 100 49 5 5 0 0 0 0 0 1 54 100 100 100 100 100 100 96 42 11 17 4 88 47 5 6 58 81
100 100 100 100 100 99 50 2 100 100 100 100 100 100 100 76 100 84 4 0 0 0 4 4 5 24 82 100 100 100 100 100 100 100 100 94 96 28 5 12 12 96 100 48
100 100 100 100 100 100 100 4 1 84 100 100 100 100 100 100 68 5 1 0 4 5 41 98 99 100 100 100 100 100 100 100 100 100 100 100 99 26 5 5 5 5 76 100
100 100 100 100 100 100 100 98 100 53 68 100 100 100 41 96 68 21 21 25 81 92 99 100 100 100 100 70 100 100 100 100 100 100 100 100 100 100 100 77 36 22 12 7
100 100 100 100 100 100 100 100 100 100 100 100 100 100 100 98 100 100 100 98 100 100 100 100 100 100 100 97 100 100 100 100 100 100 100 100 100 100 100 78 15 5 5 56